User: anonymous   Login
Location: Unspecified
(0.0000°N, 0.0000°E)
Time: 11:17:45
(UTC+00:00)
Language:

Oscar 11 - Orbit

View from above orbital plane
View from above orbital plane
View from above satellite
View from above satellite

Ground track
Ground track

The orbit data is extracted from the following two-line orbital elements,

1 14781U 84021B   22332.52213696  .00000768  00000-0  98246-4 0  9996
2 14781  97.6353 312.6587 0009326 134.3615 225.8365 14.83994805 64373
Epoch (UTC): 28 November 2022 12:31:52
Eccentricity: 0.0009326
inclination: 97.6353°
perigee height: 610 km
apogee height: 623 km
right ascension of ascending node: 312.6587°
argument of perigee: 134.3615°
revolutions per day: 14.83994805
mean anomaly at epoch: 225.8365°
orbit number at epoch: 6437

The dashed part of the orbit path shows where the satellite is in the earth's shadow,  

DLR